Participated 4 times
Between 1947 and 1951
Andre Mahé, France
Tour de France 2026 starts from Edinburgh, Scotland in

Stats and Facts from
Tour de France.

2026   2025   2024   2023  2022  2021  2020  2019   2018  2017   2016   2015  2014  2013   2012   2011  2010   2009   2008   2007   2006   2005   2004   2003   2002   2001   2000   1999   1998   1997  1996   1995   1994   1993   1992  1991   1990   1989   1988   1987   1986   1985   1984   1983  1982  1981   1980   1979  1978  1977   1976  1975  1974  1973   1972   1971   1970  1969   1968   1967   1966   1965  1964  1963   1962   1961   1960   1959   1958   1957  1956   1955   1954   1953   1952  1951  1950  1949   1948  1947  1939   1938   1937   1936   1935   1934   1933  1932   1931   1930  1929   1928   1927   1926  1925  1924  1923   1922   1921   1920   1919  1914   1913   1912   1911   1910  1909   1908   1907   1906  1905  1904   1903 

Tourstats
Sitemap

After stage 21 - 2026:
 16451 starters.
  5513 different riders.
  689 teams.
  2419 stages.
  470 restdays.
  469752.50 km.
  5946 abandoned riders.

Click map for 1995 route.
Facts from Tour de France 1995
  |   Stages.  |   Stage winners.  |   Days in jerseys.  |   Teams.  |   All riders.  |   All riders by age.  |   All riders from.  |  

  |   Rookies.  |   Withdrawls.  |   Average speed.  |   GC.  |   Polka  |   Green  |   White  |   Summits. (In tour)  |   Miscellaneous.  |  

Stage 12 on July 14th. 1995
Pick a stage:  Pro  1  2  3  4  5  6  7  8  9  10  11  12  13  14  15  17  18  19  20  

After stage 12:    Miguel Indurain  
  Saint-ÉtienneMende | Dist: 222.50km. | Winner: Laurent Jalabert

Podium
3  Côte de Saint Maurice en Gourgois Thierry Marieafter18.00 km.

4  Côte de Malaveille Dario Bottaroafter55.00 km.

3  Col de Baraques Massimo Podenzanaafter104.00 km.

2  la Causse de Mende Laurent Jalabertafter220.00 km.


Average speed for all riders in stage:  40,051 km./hr.

1
 Laurent Jalabert  O.N.C.E.05h 19' 05"=41,839  km/h

2
 Massimo Podenzana  Brescialat05h 19' 34"+  00:00:29 =41,775  km/h

3
 Dario Bottaro  Gewiss-Ballan05h 19' 47"+  00:00:42 =41,747  km/h

4  Melchor Mauri  O.N.C.E.05h 19' 53"+  00:00:48 =41,734  km/h

5  Andrea Peron  Motorola05h 20' 35"+  00:01:30 =41,643  km/h

6  Marco Pantani  Carrera Jeans-Tassoni05h 24' 46"+  00:05:41 =41,106  km/h

7  Bjarne Riis  Gewiss-Ballan05h 24' 46"+  00:05:41 =41,106  km/h

8  Miguel Indurain  Banesto05h 24' 46"+  00:05:41 =41,106  km/h

9  Laurent Brochard  Festina05h 24' 58"+  00:05:53 =41,081  km/h

10  Alex Zülle  O.N.C.E.05h 25' 03"+  00:05:58 =41,071  km/h

11  Ivan Gotti  Gewiss-Ballan05h 25' 23"+  00:06:18 =41,029  km/h

12  Tony Rominger  Mapei-GP05h 25' 23"+  00:06:18 =41,029  km/h

13  Fernando Escartin  Mapei-GP05h 25' 23"+  00:06:18 =41,029  km/h

14  Laudelino Cubino  Kelme-Avianca05h 25' 35"+  00:06:30 =41,003  km/h

15  Claudio Chiappucci  Carrera Jeans-Tassoni05h 25' 35"+  00:06:30 =41,003  km/h

16  Paolo Lanfranchi  Brescialat05h 25' 35"+  00:06:30 =41,003  km/h

17  Johan Bruyneel  O.N.C.E.05h 25' 35"+  00:06:30 =41,003  km/h

18  Richard Virenque  Festina05h 25' 35"+  00:06:30 =41,003  km/h

19  Arsenio González  Mapei-GP05h 25' 51"+  00:06:46 =40,970  km/h

20  Laurent Madouas  Castorama05h 25' 51"+  00:06:46 =40,970  km/h

21  Vladimir Pulnikov  Telecom-ZG-Selle Italia05h 26' 06"+  00:07:01 =40,938  km/h

22  Viatcheslav Ekimov  Novell05h 26' 14"+  00:07:09 =40,922  km/h

23  Beat Zberg  Carrera Jeans-Tassoni05h 26' 16"+  00:07:11 =40,917  km/h

24  Laurent Dufaux  Festina05h 26' 16"+  00:07:11 =40,917  km/h

25  Hernán Buenahora  Kelme-Avianca05h 26' 16"+  00:07:11 =40,917  km/h

26  Erik Breukink  O.N.C.E.05h 26' 29"+  00:07:24 =40,890  km/h

27  Mariano Rojas  O.N.C.E.05h 26' 29"+  00:07:24 =40,890  km/h

28  François Simon  Castorama05h 26' 29"+  00:07:24 =40,890  km/h

29  Federico Muñoz  Kelme-Avianca05h 26' 29"+  00:07:24 =40,890  km/h

30  Udo Bölts  Telecom-ZG-Selle Italia05h 26' 29"+  00:07:24 =40,890  km/h

31  Bo Hamburger  TVM-Polis Direct05h 26' 29"+  00:07:24 =40,890  km/h

32  Jesper Skibby  TVM-Polis Direct05h 26' 29"+  00:07:24 =40,890  km/h

33  Álvaro Mejía  Motorola05h 26' 46"+  00:07:41 =40,855  km/h

34  Bruno Cenghialta  Gewiss-Ballan05h 26' 46"+  00:07:41 =40,855  km/h

35  Massimiliano Lelli  Mercatone Uno-Saeco05h 26' 55"+  00:07:50 =40,836  km/h

36  Jean-François Bernard  Chazal-MBK-Konig05h 26' 55"+  00:07:50 =40,836  km/h

37  Yvon Ledanois  Gan05h 26' 55"+  00:07:50 =40,836  km/h

38  Leonardo Sierra  Carrera Jeans-Tassoni05h 27' 28"+  00:08:23 =40,768  km/h

39  Lance Armstrong  Motorola05h 27' 42"+  00:08:37 =40,738  km/h

40  Éric Boyer  Polti05h 27' 45"+  00:08:40 =40,732  km/h

41  Herminio Diaz Zabala  O.N.C.E.05h 27' 45"+  00:08:40 =40,732  km/h

42  Gianni Bugno  MG Maglificio-Technogym05h 27' 45"+  00:08:40 =40,732  km/h

43  Andrei Tchmil  Lotto-Isoglass05h 27' 45"+  00:08:40 =40,732  km/h

44  Andrea Tafi  Mapei-GP05h 28' 02"+  00:08:57 =40,697  km/h

45  Jean-Cyril Robin  Festina05h 28' 02"+  00:08:57 =40,697  km/h

46  Eddy Bouwmans  Novell05h 28' 10"+  00:09:05 =40,681  km/h

47  Djamolidine Abduzhaparov  Novell05h 28' 24"+  00:09:19 =40,652  km/h

48  Pavel Tonkov  Lampre-Panaria05h 28' 24"+  00:09:19 =40,652  km/h

49  Erik Dekker  Novell05h 28' 24"+  00:09:19 =40,652  km/h

50  Maximilian Sciandri  MG Maglificio-Technogym05h 29' 12"+  00:10:07 =40,553  km/h

51  Flavio Vanzella  MG Maglificio-Technogym05h 29' 12"+  00:10:07 =40,553  km/h

52  Franco Vona  MG Maglificio-Technogym05h 29' 12"+  00:10:07 =40,553  km/h

53  Alberto Elli  MG Maglificio-Technogym05h 29' 12"+  00:10:07 =40,553  km/h

54  Enrico Zaina  Carrera Jeans-Tassoni05h 29' 12"+  00:10:07 =40,553  km/h

55  Johan Museeuw  Mapei-GP05h 29' 41"+  00:10:36 =40,493  km/h

56  Georg Totschnig  Polti05h 29' 41"+  00:10:36 =40,493  km/h

57  Gabriele Colombo  Gewiss-Ballan05h 30' 54"+  00:11:49 =40,345  km/h

58  Francesco Frattini  Gewiss-Ballan05h 30' 54"+  00:11:49 =40,345  km/h

59  Serguei Utchakov  Polti05h 31' 29"+  00:12:24 =40,274  km/h

60  Neil Stephens  O.N.C.E.05h 33' 11"+  00:14:06 =40,068  km/h

61  Ramon Gonzalez  Banesto05h 33' 23"+  00:14:18 =40,044  km/h

62  Gérard Rué  Banesto05h 33' 23"+  00:14:18 =40,044  km/h

63  Vicente Aparicio  Banesto05h 33' 23"+  00:14:18 =40,044  km/h

64  Bruno Boscardin  Festina05h 34' 55"+  00:15:50 =39,861  km/h

65  Wilfried Peeters  Mapei-GP05h 34' 55"+  00:15:50 =39,861  km/h

66  Oscar Pelliccioli  Polti05h 34' 55"+  00:15:50 =39,861  km/h

67  Didier Rous  Gan05h 34' 55"+  00:15:50 =39,861  km/h

68  Gianluca Bortolami  Mapei-GP05h 34' 55"+  00:15:50 =39,861  km/h

69  Marcello Siboni  Carrera Jeans-Tassoni05h 34' 55"+  00:15:50 =39,861  km/h

70  José Angel Vidal  Kelme-Avianca05h 34' 55"+  00:15:50 =39,861  km/h

71  Artūras Kasputis  Chazal-MBK-Konig05h 34' 55"+  00:15:50 =39,861  km/h

72  Maarten Den Bakker  TVM-Polis Direct05h 34' 55"+  00:15:50 =39,861  km/h

73  Miguel Arroyo  Chazal-MBK-Konig05h 34' 55"+  00:15:50 =39,861  km/h

74  Rolf Järmann  MG Maglificio-Technogym05h 34' 55"+  00:15:50 =39,861  km/h

75  Armand De Las Cuevas  Castorama05h 34' 55"+  00:15:50 =39,861  km/h

76  Peter Farazijn  Lotto-Isoglass05h 34' 55"+  00:15:50 =39,861  km/h

77  Rolf Aldag  Telecom-ZG-Selle Italia05h 34' 55"+  00:15:50 =39,861  km/h

78  Stephen Hodge  Festina05h 34' 55"+  00:15:50 =39,861  km/h

79  Giancarlo Perini  Brescialat05h 34' 55"+  00:15:50 =39,861  km/h

80  Stefano Colagè  Telecom-ZG-Selle Italia05h 34' 55"+  00:15:50 =39,861  km/h

81  Arvis Piziks  Novell05h 34' 55"+  00:15:50 =39,861  km/h

82  Fabio Casartelli  Motorola05h 40' 19"+  00:21:14 =39,228  km/h

83  Erik Zabel  Telecom-ZG-Selle Italia05h 40' 19"+  00:21:14 =39,228  km/h

84  Nicola Loda  MG Maglificio-Technogym05h 40' 19"+  00:21:14 =39,228  km/h

85  Gian Matteo Fagnini  Mercatone Uno-Saeco05h 40' 19"+  00:21:14 =39,228  km/h

86  Eros Poli  Mercatone Uno-Saeco05h 40' 19"+  00:21:14 =39,228  km/h

87  Marco Serpellini  Lampre-Panaria05h 40' 19"+  00:21:14 =39,228  km/h

88  Andrea Ferrigato  Telecom-ZG-Selle Italia05h 40' 19"+  00:21:14 =39,228  km/h

89  Rossano Brasi  Polti05h 40' 19"+  00:21:14 =39,228  km/h

90  François Lemarchand  Gan05h 40' 19"+  00:21:14 =39,228  km/h

91  Fabian Jeker  Festina05h 40' 19"+  00:21:14 =39,228  km/h

92  Gilles Talmant  Castorama05h 40' 19"+  00:21:14 =39,228  km/h

93  Francis Moreau  Gan05h 40' 19"+  00:21:14 =39,228  km/h

94  José Ramon Uriarte  Banesto05h 40' 19"+  00:21:14 =39,228  km/h

95  Zenon Jaskuła  Aki-Gipiemme05h 40' 19"+  00:21:14 =39,228  km/h

96  Thierry Marie  Castorama05h 40' 19"+  00:21:14 =39,228  km/h

97  Giovanni Fidanza  Polti05h 40' 19"+  00:21:14 =39,228  km/h

98  Bart Voskamp  TVM-Polis Direct05h 40' 19"+  00:21:14 =39,228  km/h

99  Jim Van De Laer  TVM-Polis Direct05h 40' 19"+  00:21:14 =39,228  km/h

100  Wladimir Belli  Lampre-Panaria05h 40' 19"+  00:21:14 =39,228  km/h

101  Davide Perona  Lampre-Panaria05h 40' 19"+  00:21:14 =39,228  km/h

102  Julio César Aguirre  Kelme-Avianca05h 40' 19"+  00:21:14 =39,228  km/h

103  Mauro Bettin  Aki-Gipiemme05h 40' 19"+  00:21:14 =39,228  km/h

104  Héctor Castaño  Kelme-Avianca05h 40' 19"+  00:21:14 =39,228  km/h

105  Bruno Cornillet  Chazal-MBK-Konig05h 40' 19"+  00:21:14 =39,228  km/h

106  Dante Rezze  Aki-Gipiemme05h 40' 19"+  00:21:14 =39,228  km/h

107  Davide Cassani  MG Maglificio-Technogym05h 40' 19"+  00:21:14 =39,228  km/h

108  Marco Milesi  Brescialat05h 40' 19"+  00:21:14 =39,228  km/h

109  Sergio Barbero  Carrera Jeans-Tassoni05h 40' 19"+  00:21:14 =39,228  km/h

110  Mario Scirea  Polti05h 40' 19"+  00:21:14 =39,228  km/h

111  Guido Bontempi  Gewiss-Ballan05h 40' 19"+  00:21:14 =39,228  km/h

112  Gianluca Gorini  Aki-Gipiemme05h 40' 19"+  00:21:14 =39,228  km/h

113  Gilles Bouvard  Chazal-MBK-Konig05h 40' 19"+  00:21:14 =39,228  km/h

114  Alberto Volpi  Gewiss-Ballan05h 40' 19"+  00:21:14 =39,228  km/h

115  Marino Alonso  Banesto05h 40' 19"+  00:21:14 =39,228  km/h

116  Giovanni Lombardi  Polti05h 40' 19"+  00:21:14 =39,228  km/h

117  Ángel Camargo  Kelme-Avianca05h 40' 19"+  00:21:14 =39,228  km/h

118  Frans Maassen  Novell05h 40' 19"+  00:21:14 =39,228  km/h

119  Gilberto Simoni  Aki-Gipiemme05h 40' 19"+  00:21:14 =39,228  km/h

120  Carmelo Miranda  Banesto05h 40' 19"+  00:21:14 =39,228  km/h

121  Alexander Gontchenkov  Lampre-Panaria05h 40' 19"+  00:21:14 =39,228  km/h

122  Thierry Laurent  Castorama05h 40' 19"+  00:21:14 =39,228  km/h

123  Thomas Davy  Banesto05h 40' 19"+  00:21:14 =39,228  km/h

124  Frankie Andreu  Motorola05h 40' 19"+  00:21:14 =39,228  km/h

125  Alessio Galletti  Lampre-Panaria05h 40' 19"+  00:21:14 =39,228  km/h

126  Stephen Swart  Motorola05h 40' 19"+  00:21:14 =39,228  km/h

127  Sean Yates  Motorola05h 40' 19"+  00:21:14 =39,228  km/h

128  Dirk Baldinger  Polti05h 40' 19"+  00:21:14 =39,228  km/h

129  Jens Heppner  Telecom-ZG-Selle Italia05h 40' 19"+  00:21:14 =39,228  km/h

130  Steve Bauer  Motorola05h 40' 19"+  00:21:14 =39,228  km/h

131  Massimo Donati  Mercatone Uno-Saeco05h 40' 19"+  00:21:14 =39,228  km/h

132  Christophe Capelle  Gan05h 40' 19"+  00:21:14 =39,228  km/h

133  Aitor Garmendia  Banesto05h 41' 43"+  00:22:38 =39,067  km/h

134  Gilles Delion  Chazal-MBK-Konig05h 42' 08"+  00:23:03 =39,020  km/h


Withdrawls: 7
 RiderTeamReason
36   Dimitri Konychev Aki-GipiemmeDid not finish
124   Tristan Hoffman TVM-Polis DirectDid not finish
149   Bruno Thibout CastoramaDid not finish
166   Frédéric Moncassin NovellDid not finish
168   Leon van Bon NovellDid not finish
183   Jean-Pierre Bourgeot Chazal-MBK-KonigDid not finish
194   Angelo Lecchi BrescialatDid not finish
Todays birthdays.

1888 • Achille Serroen
1889 • Francois Magatti
1891 • Guglielmo Ceccherelli
1895 • Jules Dubois
1903 • Julien Delbecque
1915 • Emile Masson jr.
1922 • Maurice Lauze
1923 • Franco Franchi
1932 • Kurt Schneider
1940 • Franco Bitossi
1948 • Juan Zurano
1949 • Richard Pianaro
1954 • Alain Vigneron
1969 • Andrea Ferrigato
1975 • Dario Pieri
1978 • Rubén Lobato
1983 • Riccardo Riccò
1994 • Oliviero Troia
1996 • Eddie Dunbar

 

Optimized for Chrome - Edge
and Opera browsers.